�������l�o���
Date,Time,MP-1(��Sv/h),MP-2(��Sv/h),MP-3(��Sv/h),MP-4(��Sv/h),MP-5(��Sv/h),MP-6(��Sv/h),MP-7(��Sv/h),MP-8(��Sv/h),����,����(m/s),���J
2020/07/03,00:00,0.673,0.955,0.619,1.160,0.835,0.395,0.676,0.637,���k��,4.0,��
2020/07/03,00:10,0.673,0.956,0.618,1.157,0.836,0.394,0.678,0.635,���k��,5.9,��
2020/07/03,00:20,0.673,0.956,0.620,1.162,0.837,0.392,0.679,0.634,���k��,6.4,��
2020/07/03,00:30,0.673,0.954,0.618,1.160,0.836,0.394,0.679,0.636,��,2.3,��
2020/07/03,00:40,0.674,0.954,0.619,1.158,0.836,0.394,0.679,0.636,�k��,2.0,��
2020/07/03,00:50,0.673,0.956,0.619,1.159,0.837,0.394,0.679,0.637,�k��,2.6,��
2020/07/03,01:00,0.674,0.954,0.619,1.157,0.834,0.395,0.679,0.636,�k��,2.6,��
2020/07/03,01:10,0.674,0.956,0.619,1.159,0.836,0.395,0.677,0.635,�k�k��,3.4,��
2020/07/03,01:20,0.675,0.956,0.617,1.159,0.835,0.395,0.677,0.636,�k�k��,2.3,��
2020/07/03,01:30,0.675,0.953,0.617,1.159,0.836,0.394,0.678,0.637,�k�k��,2.8,��
2020/07/03,01:40,0.674,0.955,0.617,1.162,0.835,0.394,0.677,0.635,�k�k��,2.9,��
2020/07/03,01:50,0.674,0.953,0.619,1.159,0.836,0.396,0.678,0.635,�k�k��,4.0,��
2020/07/03,02:00,0.673,0.956,0.618,1.160,0.837,0.395,0.678,0.635,�k�k��,5.8,��
2020/07/03,02:10,0.674,0.955,0.620,1.160,0.836,0.395,0.679,0.637,�k�k��,4.5,��
2020/07/03,02:20,0.674,0.956,0.620,1.161,0.836,0.394,0.677,0.637,�k��,7.2,��
2020/07/03,02:30,0.673,0.956,0.618,1.160,0.835,0.395,0.677,0.636,�k��,8.2,��
2020/07/03,02:40,0.673,0.955,0.619,1.163,0.836,0.394,0.679,0.636,���k��,6.7,��
2020/07/03,02:50,0.673,0.957,0.620,1.160,0.836,0.395,0.678,0.637,���k��,7.5,��
2020/07/03,03:00,0.672,0.957,0.618,1.161,0.837,0.393,0.676,0.636,�k�k��,3.8,��
2020/07/03,03:10,0.671,0.956,0.617,1.159,0.836,0.394,0.677,0.637,�k��,5.2,��
2020/07/03,03:20,0.673,0.957,0.616,1.160,0.834,0.394,0.677,0.638,�k��,6.1,��
2020/07/03,03:30,0.672,0.955,0.619,1.162,0.835,0.395,0.677,0.636,�k��,4.6,��
2020/07/03,03:40,0.673,0.956,0.618,1.161,0.837,0.394,0.678,0.637,���k��,5.1,��
2020/07/03,03:50,0.672,0.956,0.618,1.160,0.838,0.395,0.678,0.636,�k��,4.5,��
2020/07/03,04:00,0.674,0.956,0.618,1.158,0.837,0.394,0.679,0.635,�k��,4.1,��
2020/07/03,04:10,0.672,0.955,0.618,1.159,0.837,0.395,0.677,0.636,�k��,4.3,��
2020/07/03,04:20,0.674,0.956,0.619,1.160,0.837,0.394,0.679,0.634,�k��,5.2,��
2020/07/03,04:30,0.674,0.956,0.620,1.158,0.837,0.395,0.677,0.635,�k��,6.1,��
2020/07/03,04:40,0.675,0.957,0.619,1.157,0.835,0.394,0.678,0.635,�k��,6.9,��
2020/07/03,04:50,0.672,0.956,0.620,1.161,0.835,0.394,0.680,0.634,���k��,7.3,��
2020/07/03,05:00,0.675,0.956,0.617,1.160,0.837,0.395,0.679,0.635,���k��,6.3,��
2020/07/03,05:10,0.673,0.955,0.619,1.161,0.836,0.395,0.679,0.638,���k��,5.5,��
2020/07/03,05:20,0.675,0.955,0.621,1.161,0.837,0.395,0.678,0.636,���k��,6.3,��
2020/07/03,05:30,0.676,0.956,0.619,1.163,0.836,0.396,0.678,0.635,���k��,7.0,��
2020/07/03,05:40,0.675,0.955,0.619,1.161,0.835,0.396,0.678,0.637,���k��,6.9,��
2020/07/03,05:50,0.672,0.955,0.617,1.162,0.837,0.394,0.679,0.636,���k��,6.5,��
2020/07/03,06:00,0.673,0.954,0.620,1.161,0.838,0.392,0.678,0.637,���k��,5.0,��
2020/07/03,06:10,0.673,0.955,0.617,1.162,0.835,0.392,0.678,0.636,�k��,6.3,��
2020/07/03,06:20,0.673,0.956,0.618,1.160,0.837,0.394,0.677,0.636,�k��,5.7,��
2020/07/03,06:30,0.672,0.955,0.615,1.160,0.836,0.393,0.676,0.637,���k��,5.6,��
2020/07/03,06:40,0.675,0.954,0.616,1.159,0.836,0.393,0.677,0.635,�k��,3.9,��
2020/07/03,06:50,0.675,0.953,0.620,1.160,0.835,0.392,0.677,0.636,�k��,2.0,��
2020/07/03,07:00,0.673,0.952,0.617,1.161,0.836,0.392,0.678,0.635,�k�k��,2.8,��
2020/07/03,07:10,0.675,0.955,0.617,1.162,0.835,0.392,0.676,0.636,�k��,1.9,��
2020/07/03,07:20,0.674,0.954,0.618,1.160,0.836,0.394,0.677,0.636,�k��,1.7,��
2020/07/03,07:30,0.674,0.954,0.616,1.163,0.837,0.394,0.678,0.635,���k��,2.5,��
2020/07/03,07:40,0.673,0.955,0.615,1.161,0.838,0.393,0.676,0.634,���k��,1.5,��
2020/07/03,07:50,0.672,0.953,0.613,1.161,0.835,0.395,0.676,0.635,���k��,1.5,��
2020/07/03,08:00,0.675,0.955,0.615,1.162,0.836,0.394,0.675,0.634,�k��,2.0,��
2020/07/03,08:10,0.674,0.954,0.618,1.162,0.837,0.394,0.677,0.632,�k�k��,3.1,��
2020/07/03,08:20,0.675,0.954,0.615,1.162,0.837,0.394,0.676,0.633,�k,3.4,��
2020/07/03,08:30,0.674,0.954,0.617,1.163,0.837,0.396,0.676,0.635,�k�k��,5.4,��
2020/07/03,08:40,0.674,0.954,0.618,1.161,0.833,0.393,0.676,0.634,�k��,5.5,��
2020/07/03,08:50,0.674,0.953,0.616,1.161,0.837,0.393,0.676,0.634,�k��,4.7,��
2020/07/03,09:00,0.672,0.951,0.617,1.160,0.837,0.393,0.675,0.632,�k��,4.0,��
2020/07/03,09:10,0.673,0.953,0.615,1.162,0.836,0.393,0.676,0.634,�k��,4.9,��
2020/07/03,09:20,0.673,0.950,0.613,1.163,0.838,0.393,0.676,0.634,�k�k��,5.2,��
2020/07/03,09:30,0.672,0.950,0.613,1.163,0.838,0.392,0.677,0.634,�k�k��,5.6,��
2020/07/03,09:40,0.674,0.950,0.615,1.163,0.839,0.394,0.676,0.634,�k�k��,5.6,��
2020/07/03,09:50,0.673,0.953,0.615,1.165,0.836,0.393,0.675,0.634,�k��,5.4,��
2020/07/03,10:00,0.673,0.949,0.612,1.164,0.838,0.394,0.676,0.636,���k��,6.2,��
2020/07/03,10:10,0.671,0.953,0.614,1.164,0.840,0.392,0.675,0.633,���k��,6.1,��
2020/07/03,10:20,0.673,0.951,0.616,1.165,0.837,0.394,0.675,0.633,�k��,4.8,��
2020/07/03,10:30,0.673,0.953,0.618,1.162,0.840,0.393,0.676,0.633,���k��,3.0,��
2020/07/03,10:40,0.671,0.954,0.615,1.166,0.838,0.391,0.677,0.634,�k�k��,3.6,��
2020/07/03,10:50,0.670,0.954,0.616,1.164,0.838,0.391,0.675,0.634,�k�k��,3.5,��
2020/07/03,11:00,0.669,0.951,0.617,1.164,0.839,0.391,0.677,0.635,�k�k��,2.8,��
2020/07/03,11:10,0.674,0.954,0.614,1.162,0.840,0.393,0.677,0.634,�k�k��,3.0,��
2020/07/03,11:20,0.671,0.953,0.614,1.160,0.840,0.391,0.676,0.634,�k,2.0,��
2020/07/03,11:30,0.671,0.954,0.615,1.161,0.837,0.391,0.675,0.635,�k�k��,2.5,��
2020/07/03,11:40,0.672,0.955,0.614,1.161,0.840,0.392,0.675,0.634,�k��,2.5,��
2020/07/03,11:50,0.671,0.955,0.616,1.162,0.836,0.391,0.678,0.634,�k�k��,2.5,��
2020/07/03,12:00,0.671,0.957,0.615,1.161,0.839,0.392,0.676,0.633,�k,2.8,��
2020/07/03,12:10,0.671,0.959,0.617,1.164,0.839,0.391,0.675,0.633,�k,1.7,��
2020/07/03,12:20,0.673,0.959,0.615,1.162,0.840,0.392,0.676,0.633,���k��,1.7,��
2020/07/03,12:30,0.672,0.956,0.613,1.164,0.837,0.391,0.676,0.634,�쓌,0.8,��
2020/07/03,12:40,0.672,0.959,0.614,1.164,0.837,0.391,0.675,0.633,�k��,0.9,��
2020/07/03,12:50,0.671,0.956,0.616,1.163,0.839,0.392,0.676,0.634,�k,1.2,��
2020/07/03,13:00,0.671,0.955,0.615,1.163,0.840,0.391,0.676,0.634,�k��,0.9,��
2020/07/03,13:10,0.671,0.954,0.614,1.166,0.842,0.391,0.675,0.633,�k��,1.1,��
2020/07/03,13:20,0.673,0.958,0.614,1.162,0.837,0.391,0.677,0.634,��,0.9,��
2020/07/03,13:30,0.672,0.955,0.614,1.165,0.843,0.391,0.675,0.634,�k,2.3,��
2020/07/03,13:40,0.673,0.954,0.617,1.165,0.839,0.393,0.676,0.635,�k�k��,2.0,��
2020/07/03,13:50,0.673,0.953,0.616,1.164,0.840,0.393,0.676,0.634,�k�k��,0.9,��
2020/07/03,14:00,0.673,0.957,0.617,1.165,0.841,0.393,0.675,0.634,�k��,1.1,��
2020/07/03,14:10,0.671,0.954,0.617,1.164,0.842,0.393,0.677,0.634,�쓌,1.7,��
2020/07/03,14:20,0.674,0.957,0.616,1.163,0.841,0.392,0.676,0.635,���쓌,1.5,��
2020/07/03,14:30,0.675,0.958,0.616,1.162,0.841,0.393,0.677,0.635,���쓌,1.5,��
2020/07/03,14:40,0.672,0.957,0.617,1.163,0.841,0.392,0.676,0.634,�쓌,1.5,��
2020/07/03,14:50,0.671,0.957,0.617,1.163,0.841,0.394,0.675,0.634,�쓌,2.0,��
2020/07/03,15:00,0.674,0.959,0.615,1.164,0.842,0.393,0.677,0.635,��,1.5,��
2020/07/03,15:10,0.674,0.959,0.618,1.165,0.842,0.393,0.675,0.635,��쓌,1.5,��
2020/07/03,15:20,0.671,0.960,0.617,1.164,0.842,0.393,0.677,0.634,��쓌,0.9,��
2020/07/03,15:30,0.674,0.961,0.616,1.166,0.842,0.393,0.679,0.634,��쓌,1.5,��
2020/07/03,15:40,0.674,0.961,0.616,1.165,0.842,0.393,0.677,0.634,��쓌,2.5,��
2020/07/03,15:50,0.675,0.961,0.616,1.164,0.843,0.393,0.677,0.634,��쓌,1.5,��
2020/07/03,16:00,0.671,0.962,0.617,1.164,0.841,0.393,0.677,0.635,��,2.3,��
2020/07/03,16:10,0.673,0.962,0.617,1.168,0.844,0.394,0.678,0.634,��쓌,2.0,��
2020/07/03,16:20,0.672,0.961,0.617,1.167,0.841,0.393,0.676,0.633,��쓌,1.7,��
2020/07/03,16:30,0.672,0.965,0.618,1.168,0.840,0.394,0.678,0.636,��쓌,2.5,��
2020/07/03,16:40,0.672,0.966,0.620,1.167,0.843,0.395,0.677,0.635,��쓌,2.5,��
2020/07/03,16:50,0.673,0.962,0.619,1.166,0.841,0.393,0.676,0.636,��,1.7,��
2020/07/03,17:00,0.674,0.967,0.618,1.166,0.843,0.393,0.678,0.636,��쓌,2.3,��
2020/07/03,17:10,0.673,0.964,0.618,1.166,0.841,0.395,0.678,0.636,�쓌,2.0,��
2020/07/03,17:20,0.674,0.965,0.620,1.169,0.843,0.394,0.678,0.637,�쓌,1.7,��
2020/07/03,17:30,0.674,0.963,0.619,1.166,0.842,0.393,0.678,0.636,��쓌,2.3,��
2020/07/03,17:40,0.674,0.964,0.620,1.170,0.840,0.394,0.679,0.635,��,3.2,��
2020/07/03,17:50,0.675,0.965,0.620,1.167,0.841,0.395,0.679,0.636,��쓌,2.5,��
2020/07/03,18:00,0.675,0.965,0.619,1.168,0.845,0.394,0.677,0.636,��쓌,2.3,��
2020/07/03,18:10,0.675,0.965,0.620,1.169,0.841,0.395,0.678,0.637,��쓌,2.6,��
2020/07/03,18:20,0.676,0.966,0.619,1.168,0.842,0.394,0.679,0.637,��쓌,2.0,��
2020/07/03,18:30,0.676,0.967,0.619,1.164,0.844,0.394,0.679,0.637,�쓌,1.5,��
2020/07/03,18:40,0.674,0.965,0.620,1.168,0.842,0.395,0.680,0.636,�쓌,0.9,��
2020/07/03,18:50,0.674,0.967,0.617,1.169,0.843,0.396,0.678,0.635,�쓌,0.9,��
2020/07/03,19:00,0.676,0.968,0.619,1.170,0.843,0.397,0.678,0.637,��쓌,1.1,��
2020/07/03,19:10,0.676,0.968,0.619,1.168,0.845,0.396,0.679,0.639,��쓌,1.4,��
2020/07/03,19:20,0.677,0.968,0.621,1.171,0.844,0.396,0.680,0.637,�쓌,1.7,��
2020/07/03,19:30,0.676,0.969,0.621,1.168,0.844,0.397,0.680,0.638,��,2.0,��
2020/07/03,19:40,0.678,0.968,0.619,1.170,0.843,0.398,0.679,0.637,��,2.0,��
2020/07/03,19:50,0.675,0.968,0.618,1.168,0.846,0.397,0.678,0.639,��쓌,2.6,��
2020/07/03,20:00,0.676,0.970,0.618,1.168,0.845,0.398,0.679,0.637,��쓌,2.5,��
2020/07/03,20:10,0.676,0.969,0.620,1.168,0.843,0.396,0.678,0.637,��쓌,2.3,��
2020/07/03,20:20,0.676,0.968,0.620,1.170,0.844,0.396,0.680,0.638,��쓌,2.5,��
2020/07/03,20:30,0.676,0.967,0.620,1.167,0.843,0.397,0.681,0.636,��쓌,1.7,��
2020/07/03,20:40,0.677,0.967,0.620,1.170,0.842,0.395,0.677,0.636,���쓌,1.4,��
2020/07/03,20:50,0.675,0.969,0.619,1.170,0.842,0.396,0.679,0.637,�쓌,1.7,��
2020/07/03,21:00,0.677,0.968,0.618,1.168,0.845,0.396,0.680,0.637,�쓌,2.3,��
2020/07/03,21:10,0.675,0.967,0.619,1.168,0.844,0.396,0.681,0.637,�쓌,2.3,��
2020/07/03,21:20,0.677,0.965,0.619,1.168,0.843,0.397,0.679,0.637,�쓌,2.5,��
2020/07/03,21:30,0.676,0.969,0.620,1.167,0.843,0.396,0.680,0.637,��쓌,1.9,��
2020/07/03,21:40,0.675,0.967,0.619,1.169,0.842,0.397,0.680,0.637,��쓌,1.9,��
2020/07/03,21:50,0.676,0.970,0.619,1.168,0.842,0.397,0.678,0.638,�쓌,1.9,��
2020/07/03,22:00,0.675,0.966,0.619,1.168,0.844,0.397,0.680,0.637,�쓌,2.2,��
2020/07/03,22:10,0.677,0.969,0.620,1.168,0.842,0.397,0.679,0.638,�쓌,1.7,��
2020/07/03,22:20,0.677,0.968,0.620,1.170,0.843,0.397,0.680,0.639,�쓌,2.3,��
2020/07/03,22:30,0.678,0.967,0.620,1.170,0.844,0.398,0.679,0.638,��쓌,2.6,�L
2020/07/03,22:40,0.677,0.966,0.620,1.166,0.844,0.397,0.679,0.637,��쓌,2.5,�L
2020/07/03,22:50,0.676,0.968,0.619,1.169,0.843,0.398,0.679,0.638,��쓌,2.5,�L
2020/07/03,23:00,0.678,0.967,0.620,1.170,0.843,0.396,0.681,0.638,��쓌,2.9,�L
2020/07/03,23:10,0.675,0.968,0.620,1.169,0.844,0.398,0.680,0.638,��쓌,3.2,�L
2020/07/03,23:20,0.677,0.969,0.618,1.169,0.845,0.398,0.681,0.637,��쓌,3.7,�L
2020/07/03,23:30,0.677,0.966,0.619,1.170,0.844,0.398,0.680,0.638,��쓌,3.6,�L
2020/07/03,23:40,0.676,0.967,0.620,1.169,0.844,0.398,0.680,0.637,��쓌,3.7,�L
2020/07/03,23:50,0.676,0.966,0.618,1.167,0.845,0.399,0.681,0.636,��쓌,3.7,�L
